Location: Peterborough
(44.3091°N, 78.3197°W)
Time: 03:29:54
(UTC-04:00)

Tiros 1 despin weight - Pass Details

Date: 23 March 2023
Orbit: 586 x 632 km, 48.2° (Epoch: 08 June)

Event Time Altitude Azimuth Distance (km) Brightness Sun altitude
Rises 03:55:39 0° 292° (WNW) 2,849 - -33.0°
Reaches altitude 10° 03:57:55 10° 291° (WNW) 1,952 - -32.7°
Maximum altitude 04:02:24 77° 207° (SSW) 631 - -32.1°
Drops below altitude 10° 04:06:57 10° 121° (ESE) 1,977 - -31.5°
Exits shadow 04:07:12 - 120° (ESE) 2,079 ? -31.4°
Sets 04:09:16 0° 119° (ESE) 2,889 ? -31.1°
